Cloud_Cover
99 22 44 5 2 0 0 0 0 0 0 0 0 0 0 0 0 0 0 0 0 5 5 5 5 2 0 0 0 0 22 100 100 100 100 100 100 100 100 100 100 100 100 100
100 74 7 3 0 0 0 0 0 0 0 0 0 0 0 0 0 0 0 0 0 0 5 3 5 15 5 0 0 0 1 1 99 100 100 100 100 100 100 100 100 100 100 100
86 9 5 56 5 0 0 0 0 0 0 0 0 0 0 0 0 0 0 0 0 0 0 0 1 25 5 5 0 0 0 4 8 100 100 100 100 100 100 100 100 100 100 100
100 100 94 1 0 0 0 0 0 0 3 0 1 0 0 0 0 0 0 0 4 5 3 3 4 3 100 20 5 0 0 0 0 44 100 100 100 100 100 100 100 100 100 100
0 0 0 0 0 0 0 0 0 4 5 60 17 72 5 0 0 0 4 12 42 54 72 59 5 5 5 76 5 5 2 0 0 0 96 100 100 100 100 100 100 100 100 100
0 0 0 0 0 0 0 0 2 4 17 59 0 4 5 4 73 100 100 100 100 100 100 98 65 8 5 2 5 5 5 0 0 0 4 100 100 100 100 100 100 100 100 100
0 0 0 0 0 0 1 4 0 0 2 62 3 30 61 99 92 94 100 100 99 99 100 100 93 51 8 5 5 5 5 4 0 0 0 32 68 100 100 100 100 100 100 100
0 0 0 0 0 0 5 5 1 5 6 27 99 94 100 100 100 100 100 100 100 100 100 100 99 100 80 62 17 5 5 5 3 0 0 1 75 100 100 100 100 100 100 100
0 2 5 0 0 1 5 22 11 95 89 100 3 99 100 100 100 100 100 99 100 100 100 100 90 98 97 85 77 46 53 22 9 0 0 0 61 88 100 100 100 100 100 100
1 5 0 0 0 1 1 2 29 64 98 94 99 85 18 45 83 100 100 97 100 100 100 100 100 92 100 100 100 100 100 77 49 27 1 2 100 100 100 100 100 100 100 100
5 0 0 5 0 0 0 5 33 20 84 100 85 7 100 72 100 100 100 86 100 100 100 100 98 100 100 100 100 100 100 100 98 89 46 55 100 100 100 100 100 100 100 100
5 5 12 4 0 0 0 4 5 4 34 72 100 99 99 100 100 100 100 100 100 100 100 100 100 100 100 100 100 100 100 100 100 100 97 97 100 100 100 100 100 100 100 100
5 5 97 0 0 0 0 1 14 100 100 88 100 100 100 100 100 99 100 100 100 100 100 100 100 100 100 100 100 100 100 100 100 100 100 100 100 100 100 100 100 100 100 100
5 23 52 0 0 0 0 0 12 100 78 42 56 12 11 56 84 100 100 100 100 100 100 100 100 100 100 100 100 100 100 100 100 100 100 100 100 100 100 100 100 100 100 100
24 100 70 5 0 0 0 0 6 35 75 100 6 5 35 47 100 100 100 100 100 100 100 100 100 100 100 100 100 100 100 100 100 100 100 100 100 100 100 100 100 100 100 100
80 100 30 42 0 5 10 0 12 100 100 100 45 88 27 88 100 100 100 100 100 100 100 100 100 100 100 100 100 100 100 100 100 100 100 100 100 100 100 100 100 100 100 100
100 100 14 0 0 0 0 0 14 100 100 73 92 58 99 86 97 100 100 100 100 100 100 100 100 100 100 100 100 100 100 100 100 100 100 100 100 100 100 100 100 100 100 100
100 100 84 10 4 0 0 0 12 100 98 99 93 65 10 79 100 100 100 100 100 100 100 100 100 100 100 100 100 100 100 100 100 100 100 100 100 100 100 100 100 100 100 100
100 96 57 1 4 0 0 0 6 95 100 100 100 45 6 54 89 100 100 100 100 100 100 100 100 100 100 100 100 100 100 100 100 100 100 100 100 100 100 100 100 100 100 100
100 100 40 87 1 0 0 0 8 100 100 100 100 98 100 98 89 100 100 100 96 100 100 100 100 100 100 100 100 100 100 100 100 100 100 100 100 100 100 100 100 100 100 100
100 100 92 100 12 0 0 4 92 42 100 100 100 100 99 100 100 100 100 100 100 100 100 100 100 100 100 100 100 99 99 100 100 100 100 100 100 100 100 100 100 100 99 100
98 99 37 66 85 10 0 6 10 83 100 50 100 100 100 98 100 100 100 100 100 100 98 70 100 100 100 100 100 100 100 100 100 100 100 100 100 100 100 100 100 100 100 100
90 100 24 0 0 0 0 3 75 94 100 100 99 100 100 100 100 100 100 100 100 100 100 100 89 100 97 98 100 100 100 100 100 100 100 100 100 100 100 100 100 100 100 100
100 97 5 5 2 0 0 0 54 100 100 100 97 100 100 100 100 100 100 98 98 100 100 100 100 100 87 88 99 100 100 100 100 100 100 100 100 100 100 100 100 100 100 100
100 81 14 5 5 0 0 3 38 100 100 100 91 30 95 100 100 90 89 74 43 41 96 93 99 100 93 100 100 100 100 100 100 100 100 100 100 100 100 100 100 100 100 100
100 98 6 5 8 1 0 0 0 4 27 65 45 30 89 100 100 90 82 97 82 81 50 14 64 85 85 56 79 89 63 60 98 99 100 100 100 100 100 100 100 100 100 100